Farmington, MO

10:02 PM CDT on October 18, 2019 (GMT -0500)
Farmington Regional

Weather History for KFAM - July, 2019

Change the Weather History Date:

Sunday, July 21, 2019

  Actual Average Record
Temperature  
Mean Temperature 82 °F -  
Max Temperature 91 °F 84 °F 98 °F (2011)
Min Temperature 75 °F 65 °F 55 °F (2007)
Cooling Degree Days 18    
Growing Degree Days 32 (Base 50)    
Moisture  
Dew Point 75 °F    
Average Humidity 79    
Maximum Humidity 97    
Minimum Humidity 55    
Precipitation  
Precipitation 0.00 in - - ()
Sea Level Pressure  
Sea Level Pressure 29.96 in    
Wind  
Wind Speed 4 mph (WNW)    
Max Wind Speed 8 mph    
Max Gust Speed -    
Visibility 10 miles    
Events      
Averages and records for this station are not official NWS values.
T = Trace of Precipitation, MM = Missing Value Source: NWS Daily Summary

Daily Weather History Graph

Daily Weather History Graph

Search for Another Location

Airport or City:

Astronomy

Jul. 21, 2019 Rise Set
Actual Time 5:56 AM CDT 8:19 PM CDT
Civil Twilight 5:26 AM CDT 8:49 PM CDT
Nautical Twilight 4:49 AM CDT 9:26 PM CDT
Astronomical Twilight 4:08 AM CDT 10:07 PM CDT
Moon 11:18 PM CDT (7/21) 10:12 AM CDT (7/21)
Length of Visible Light 15h 23m
Length of Day
14h 23m
Waning Gibbous, 80% of the Moon is Illuminated
Jul 21
Waning Gibbous
Jul 24
Last Quarter
Jul 31
New
Aug 7
First Quarter
Aug 15
Full

Hourly Weather History & Observations

Time (CDT) Temp. Heat Index Dew Point Humidity Pressure Visibility Wind Dir Wind Speed Gust Speed Precip Events Conditions
12:56 AM 75.9 °F - 75.0 °F 97% 29.96 in 9.0 mi South 3.5 mph - N/A   Clear
1:56 AM 75.9 °F - 75.0 °F 97% 29.96 in 8.0 mi Calm Calm - N/A   Clear
2:56 AM 75.9 °F - 75.0 °F 97% 29.95 in 8.0 mi Calm Calm - N/A   Clear
3:56 AM 75.9 °F - 75.0 °F 97% 29.93 in 7.0 mi SSE 3.5 mph - N/A   Clear
4:56 AM 75.9 °F - 75.0 °F 97% 29.95 in 10.0 mi SSW 4.6 mph - N/A   Overcast
5:56 AM 75.9 °F - 75.0 °F 97% 29.95 in 7.0 mi South 6.9 mph - N/A   Clear
6:56 AM 75.9 °F - 75.0 °F 97% 29.95 in 9.0 mi South 6.9 mph - N/A   Clear
7:56 AM 78.1 °F - 75.0 °F 90% 29.95 in 10.0 mi South 3.5 mph - N/A   Clear
8:56 AM 81.0 °F 87.3 °F 75.9 °F 85% 29.98 in 10.0 mi NW 4.6 mph - N/A   Partly Cloudy
9:43 AM 80.6 °F 86.2 °F 75.2 °F 84% 29.99 in 10.0 mi NNW 6.9 mph - N/A   Mostly Cloudy
9:56 AM 81.0 °F 87.3 °F 75.9 °F 85% 29.99 in 10.0 mi NW 5.8 mph - N/A   Scattered Clouds
10:25 AM 82.4 °F 89.5 °F 75.2 °F 79% 30.00 in 10.0 mi WNW 4.6 mph - N/A   Mostly Cloudy
10:56 AM 84.0 °F 91.9 °F 75.0 °F 74% 29.99 in 10.0 mi Variable 5.8 mph - N/A   Mostly Cloudy
11:24 AM 84.2 °F 92.3 °F 75.2 °F 74% 29.99 in 10.0 mi NW 8.1 mph - N/A   Scattered Clouds
11:56 AM 86.0 °F 92.2 °F 72.0 °F 63% 29.99 in 10.0 mi West 5.8 mph - N/A   Clear
12:56 PM 87.1 °F 92.0 °F 70.0 °F 57% 29.98 in 10.0 mi NW 3.5 mph - N/A   Clear
1:56 PM 89.1 °F 97.0 °F 73.0 °F 59% 29.96 in 10.0 mi Variable 4.6 mph - N/A   Clear
2:56 PM 90.0 °F 99.0 °F 73.9 °F 59% 29.94 in 10.0 mi SW 5.8 mph - N/A   Clear
3:56 PM 90.0 °F 97.9 °F 73.0 °F 57% 29.93 in 10.0 mi WNW 4.6 mph - N/A   Clear
4:56 PM 90.0 °F 96.9 °F 72.0 °F 55% 29.93 in 10.0 mi NW 6.9 mph - N/A   Clear
5:56 PM 88.0 °F 96.5 °F 73.9 °F 63% 29.93 in 10.0 mi WNW 5.8 mph - N/A   Clear
6:56 PM 88.0 °F 98.5 °F 75.9 °F 67% 29.92 in 10.0 mi WNW 5.8 mph - N/A   Clear
7:56 PM 86.0 °F 96.0 °F 75.9 °F 72% 29.94 in 10.0 mi NNW 3.5 mph - N/A   Clear
8:56 PM 82.9 °F 90.2 °F 75.0 °F 77% 29.95 in 10.0 mi NNW 3.5 mph - N/A   Clear
9:56 PM 80.1 °F 85.1 °F 75.0 °F 85% 29.96 in 10.0 mi North 3.5 mph - N/A   Clear
10:56 PM 79.0 °F - 75.0 °F 88% 29.94 in 10.0 mi NNE 3.5 mph - N/A   Clear
11:56 PM 78.1 °F - 75.0 °F 90% 29.95 in 10.0 mi ENE 3.5 mph - N/A   Mostly Cloudy